Wind_Speed
14 14 13 14 14 14 13 13 12 12 12 11 11 11 11 11 11 11 11 11 11 12 12 12 11 11 11 11 10 9 9 10 10 10 10 10 10 11 11 11 11 12
14 14 14 14 14 14 13 13 12 12 12 11 11 11 10 10 10 10 10 10 10 10 10 11 11 11 11 10 10 9 9 9 9 10 9 10 10 10 11 11 12 12
15 15 15 15 14 14 13 13 12 12 12 12 12 11 10 10 10 10 10 9 9 10 10 10 10 10 10 10 10 9 9 9 9 10 9 9 9 10 10 11 12 12
16 16 16 15 15 15 14 13 13 12 13 12 12 12 11 11 10 9 9 9 9 10 10 10 10 10 10 10 9 9 9 9 9 10 9 9 9 9 10 11 12 11
16 16 16 16 16 16 15 14 13 13 13 13 13 13 12 11 10 10 9 9 9 9 9 10 10 10 10 9 9 9 9 9 10 10 9 10 10 10 12 13 13 12
17 17 17 17 17 16 15 15 14 14 14 14 13 13 12 12 11 11 10 10 9 9 9 10 10 10 10 9 9 9 9 10 10 11 11 11 11 12 14 15 14 14
18 18 18 18 18 17 16 16 16 16 16 15 14 13 13 12 11 11 11 11 10 9 10 10 10 10 10 10 9 9 10 10 12 12 12 13 14 14 15 16 16 16
19 19 20 20 19 18 18 17 18 18 18 17 15 14 13 12 12 12 12 11 11 10 10 11 11 11 11 11 10 10 11 12 14 15 14 15 16 16 14 15 16 17
20 20 21 21 21 21 20 19 20 20 19 18 16 15 14 14 13 13 12 12 12 12 11 12 12 13 12 12 11 11 13 14 16 16 16 16 18 17 16 16 17 17
21 21 21 21 22 22 22 21 21 21 20 19 17 16 16 15 15 14 14 13 13 12 12 13 14 14 14 14 12 12 14 15 16 17 17 17 18 18 17 17 17 18
22 21 22 22 22 22 23 23 22 22 21 19 18 18 17 16 15 15 14 13 13 13 13 14 15 15 16 16 12 12 14 15 16 17 17 18 18 18 17 18 17 17
23 23 23 22 22 23 23 23 22 22 22 20 19 19 18 17 16 15 15 14 14 15 15 15 16 16 17 16 14 14 15 15 17 19 19 19 20 19 19 19 18 18
25 25 24 23 23 23 23 23 23 23 23 21 20 20 19 17 16 16 16 16 16 16 16 16 16 17 17 17 17 17 17 17 18 20 21 22 22 21 21 21 21 21
26 26 25 24 24 24 24 24 24 24 23 22 21 21 20 19 18 17 17 17 17 17 17 18 18 18 18 18 18 18 18 18 19 20 22 22 22 22 22 23 22 22
27 27 26 26 26 25 25 24 24 24 23 23 23 21 21 21 19 19 19 19 19 19 19 19 19 19 19 19 19 18 18 19 19 20 21 22 22 22 23 23 23 24
28 27 27 26 26 27 26 25 25 24 24 24 24 23 23 22 21 21 21 21 21 21 21 21 20 20 20 19 19 19 19 19 20 20 21 21 22 24 24 24 24 26
32 31 29 28 28 27 27 26 26 26 26 25 25 25 24 24 23 23 23 24 23 23 23 22 22 21 21 20 19 19 19 20 21 21 21 21 23 24 25 25 26 27
36 34 33 32 30 28 27 27 28 28 28 27 26 26 26 25 25 25 26 26 26 26 25 24 23 22 21 20 20 19 19 19 20 20 20 20 22 23 24 25 25 25
36 36 35 34 32 30 29 29 29 29 29 29 28 27 27 26 26 27 26 26 26 26 26 24 23 22 21 21 20 19 19 19 20 20 20 20 20 21 22 22 22 23
36 36 35 34 33 31 30 31 32 31 31 30 29 28 27 27 27 27 26 26 26 25 25 24 23 22 20 19 19 18 19 20 20 19 18 18 18 19 20 19 19 19
33 35 35 35 34 31 29 31 33 34 32 31 29 28 28 27 27 26 25 24 24 24 23 23 22 20 17 17 17 18 18 19 18 16 15 15 16 16 17 17 15 13
30 31 33 34 33 30 28 30 33 35 33 30 29 29 29 28 28 27 27 26 24 22 22 21 20 17 16 15 16 16 16 16 16 15 14 14 14 14 15 14 12 10
27 27 28 29 29 28 28 29 32 33 30 28 28 30 30 29 29 29 30 30 27 23 21 20 18 17 16 16 15 15 15 15 15 15 15 15 14 13 12 12 11 11
22 23 24 23 24 26 28 31 33 32 30 28 29 30 29 28 26 23 23 25 24 21 19 19 19 19 18 18 18 18 17 17 17 16 16 16 15 12 10 10 12 12
18 20 21 23 26 28 29 30 29 27 25 25 26 26 24 22 20 18 17 18 20 20 19 19 19 17 16 16 17 17 17 17 16 15 14 14 12 10 9 9 10 10
9 10 11 13 16 17 16 14 15 15 16 19 22 24 22 18 17 17 17 16 17 17 16 16 14 13 13 14 14 14 12 10 10 9 9 8 7 6 6 7 8 8
Wind_Direction
192 191 192 193 194 195 198 200 203 206 208 210 213 214 217 221 224 226 230 232 233 233 233 235 238 240 240 239 238 239 240 241 243 247 251 255 258 260 263 266 269 271
199 195 194 196 197 198 200 201 203 206 210 214 219 220 222 224 223 225 229 232 233 234 235 235 236 237 237 237 238 238 239 239 243 250 256 259 262 266 272 275 278 280
207 202 200 199 199 201 203 206 206 208 212 215 219 222 222 219 218 221 225 228 230 232 234 233 232 233 234 235 238 240 242 244 249 256 260 264 269 274 279 281 282 285
213 209 206 204 204 205 206 209 211 213 216 218 219 221 221 218 216 219 223 226 228 231 232 231 231 233 234 236 239 244 250 255 257 261 264 266 269 272 275 275 273 274
216 213 211 210 211 211 210 211 213 217 220 224 225 225 225 222 219 222 227 230 231 234 235 235 236 239 240 242 245 249 255 260 262 265 267 267 268 271 271 268 266 266
215 214 213 215 216 216 216 215 217 219 222 226 229 231 232 229 224 224 228 232 235 239 242 243 245 248 251 251 253 257 262 266 270 273 273 272 271 270 270 274 277 276
214 214 214 216 218 220 220 220 221 222 224 226 229 232 234 236 235 233 234 235 237 242 247 252 254 256 261 262 263 266 269 271 271 270 268 266 263 260 267 282 290 289
215 215 216 217 219 222 223 225 227 227 227 229 231 234 237 240 242 243 244 243 243 244 248 253 256 257 260 264 268 270 270 270 269 267 266 267 268 268 273 283 287 289
218 218 219 220 221 223 224 226 229 230 230 231 234 238 241 243 245 246 248 248 248 249 250 252 253 254 255 257 262 268 270 270 273 277 282 284 284 286 288 288 287 290
219 219 221 222 225 226 226 227 229 231 231 231 234 238 242 245 246 246 248 249 251 252 255 257 258 259 260 258 256 262 268 271 275 281 286 287 287 290 293 292 289 291
219 220 222 224 226 228 229 229 230 232 233 233 235 238 242 244 245 246 248 250 252 253 254 259 262 264 264 264 264 265 269 274 278 280 282 284 286 289 290 289 287 289
218 219 221 224 226 228 230 230 231 233 235 235 237 239 242 244 244 245 247 248 251 252 253 255 259 263 267 271 274 273 273 278 281 283 285 285 286 287 286 284 283 284
219 218 220 222 224 226 228 229 230 233 234 235 237 239 239 242 243 244 247 250 252 253 255 256 258 263 267 271 273 273 276 279 281 284 285 285 286 289 287 283 282 283
222 221 221 221 222 223 225 226 228 231 232 234 236 237 237 239 242 244 246 249 251 253 255 257 258 261 265 268 270 273 275 277 279 281 282 284 288 290 290 290 291 291
226 226 225 224 224 224 224 224 226 229 231 233 235 236 237 240 243 246 248 249 250 250 252 254 256 259 262 265 268 271 273 276 278 279 281 284 287 288 291 294 295 293
227 228 228 229 229 228 228 227 226 228 231 233 236 237 240 244 247 249 251 251 250 250 251 253 256 258 261 264 267 270 273 276 277 278 281 285 286 288 291 293 293 291
224 223 225 228 230 232 231 230 230 230 230 232 236 239 241 245 248 250 252 253 253 253 254 255 256 258 260 262 265 270 274 276 277 278 281 284 285 287 289 289 289 288
227 226 224 225 229 233 235 234 233 233 233 233 235 238 241 244 247 250 252 253 255 256 257 258 258 259 260 261 266 272 275 274 274 277 279 282 284 285 285 285 285 285
232 232 230 229 230 235 239 238 237 237 236 235 234 236 239 242 244 247 249 252 254 256 259 260 259 259 260 264 270 273 272 272 274 278 280 282 284 284 284 283 284 287
233 235 236 236 235 238 241 241 239 238 236 236 236 236 237 239 242 244 247 251 254 256 259 260 259 260 262 267 270 270 269 272 276 279 279 279 280 282 282 283 287 291
230 233 235 236 236 238 240 240 239 238 236 235 236 238 238 239 241 242 244 248 251 254 258 260 259 259 261 264 266 267 268 271 273 275 276 277 280 281 282 285 289 293
230 231 233 234 235 236 238 239 239 239 237 236 237 239 240 239 238 241 243 247 250 251 254 257 256 253 256 262 266 268 269 268 270 273 277 283 286 284 285 285 282 282
228 229 231 233 235 235 235 237 239 240 240 241 241 241 242 242 242 241 239 240 244 248 248 250 248 246 254 265 269 271 271 268 271 277 280 284 285 282 281 276 269 277
218 226 232 235 238 239 238 240 242 244 244 245 245 243 242 239 237 236 232 231 237 244 244 245 248 252 259 266 268 270 271 271 274 278 278 277 278 274 266 263 270 285
226 235 240 242 244 243 242 243 244 243 240 238 238 237 232 222 217 221 224 229 236 244 246 247 251 254 256 262 268 272 275 275 275 276 274 274 273 266 256 260 276 290
223 226 232 238 237 233 233 236 234 230 229 228 225 222 216 210 209 213 218 225 230 230 229 230 232 240 251 263 273 277 276 275 274 273 273 273 270 262 259 269 280 289
Height
3207 3208 3209 3210 3211 3212 3213 3215 3216 3217 3217 3218 3219 3219 3220 3221 3221 3222 3222 3223 3223 3224 3225 3225 3226 3227 3227 3228 3229 3229 3230 3230 3231 3231 3232 3232 3233 3233 3233 3233 3233 3233
3206 3207 3208 3210 3211 3212 3213 3214 3215 3216 3217 3217 3218 3219 3219 3220 3221 3221 3222 3222 3223 3223 3224 3224 3225 3226 3226 3227 3228 3228 3229 3230 3230 3231 3231 3232 3232 3232 3232 3232 3232 3232
3205 3207 3208 3209 3210 3211 3212 3213 3214 3215 3216 3217 3217 3218 3219 3219 3220 3220 3221 3221 3222 3223 3223 3224 3224 3225 3226 3226 3227 3228 3228 3229 3229 3230 3230 3230 3230 3231 3231 3231 3230 3230
3205 3206 3207 3208 3209 3210 3211 3212 3213 3214 3215 3216 3216 3217 3218 3219 3219 3220 3220 3221 3221 3222 3222 3223 3224 3224 3225 3225 3226 3227 3227 3227 3228 3228 3228 3229 3229 3229 3229 3229 3229 3229
3204 3205 3206 3207 3208 3209 3210 3211 3212 3213 3214 3215 3216 3216 3217 3218 3218 3219 3220 3220 3221 3221 3222 3222 3223 3223 3224 3224 3225 3226 3226 3226 3226 3227 3227 3227 3227 3227 3227 3227 3227 3227
3203 3204 3205 3206 3207 3208 3209 3210 3211 3212 3213 3214 3215 3216 3216 3217 3217 3218 3219 3219 3220 3221 3221 3222 3222 3223 3223 3223 3224 3225 3225 3225 3225 3225 3226 3226 3226 3226 3226 3225 3226 3226
3202 3203 3204 3205 3207 3208 3208 3209 3210 3211 3212 3213 3214 3214 3215 3216 3217 3217 3218 3218 3219 3220 3220 3221 3221 3222 3222 3222 3223 3223 3224 3224 3224 3224 3224 3223 3222 3222 3222 3224 3224 3225
3200 3201 3203 3204 3205 3206 3207 3208 3209 3210 3211 3211 3212 3213 3214 3215 3215 3216 3217 3217 3218 3218 3219 3219 3220 3220 3220 3221 3221 3222 3222 3223 3222 3221 3221 3222 3221 3219 3220 3221 3222 3222
3198 3200 3201 3202 3203 3204 3205 3206 3207 3208 3209 3210 3211 3212 3213 3213 3214 3215 3215 3216 3217 3217 3218 3218 3218 3218 3218 3218 3219 3220 3221 3221 3221 3220 3221 3221 3221 3220 3221 3221 3220 3220
3197 3198 3199 3200 3201 3202 3203 3204 3205 3206 3207 3208 3210 3210 3211 3212 3212 3213 3214 3214 3215 3216 3216 3216 3217 3217 3216 3216 3216 3217 3219 3219 3220 3220 3220 3219 3219 3219 3220 3220 3219 3218
3195 3196 3197 3198 3199 3201 3201 3202 3203 3204 3205 3207 3208 3209 3209 3210 3211 3211 3212 3213 3214 3214 3215 3215 3215 3215 3215 3215 3215 3215 3217 3218 3218 3218 3217 3217 3216 3217 3218 3218 3217 3216
3192 3193 3195 3196 3197 3198 3199 3200 3202 3203 3204 3205 3206 3207 3208 3208 3209 3210 3211 3211 3212 3212 3213 3213 3214 3214 3213 3214 3214 3214 3215 3216 3216 3216 3215 3214 3214 3215 3216 3215 3214 3214
3190 3191 3192 3193 3195 3196 3197 3198 3200 3201 3202 3203 3204 3205 3206 3207 3207 3208 3209 3209 3210 3210 3211 3212 3212 3212 3212 3212 3213 3213 3213 3213 3213 3213 3212 3212 3212 3213 3214 3213 3212 3212
3188 3189 3190 3191 3192 3193 3194 3196 3197 3198 3200 3201 3202 3203 3204 3205 3206 3206 3207 3207 3208 3209 3209 3209 3210 3210 3210 3211 3211 3211 3211 3211 3211 3210 3210 3210 3210 3211 3211 3211 3211 3210
3185 3187 3188 3189 3190 3191 3192 3193 3195 3196 3197 3198 3200 3201 3202 3203 3204 3204 3205 3205 3206 3206 3206 3207 3207 3208 3208 3208 3208 3209 3209 3208 3208 3208 3208 3208 3208 3208 3208 3208 3209 3208
3183 3184 3186 3187 3188 3189 3190 3191 3192 3193 3195 3196 3197 3198 3199 3200 3201 3202 3203 3203 3203 3204 3204 3204 3205 3206 3206 3206 3206 3206 3206 3206 3206 3206 3206 3206 3205 3205 3206 3206 3206 3205
3179 3181 3183 3184 3185 3186 3188 3189 3190 3191 3192 3193 3194 3196 3197 3198 3199 3200 3200 3200 3201 3201 3201 3202 3203 3203 3204 3204 3204 3204 3204 3203 3203 3203 3203 3203 3203 3202 3203 3203 3202 3202
3176 3178 3180 3181 3182 3183 3185 3186 3187 3188 3189 3190 3191 3192 3194 3195 3196 3197 3197 3198 3198 3199 3199 3200 3201 3201 3201 3201 3202 3201 3201 3200 3200 3200 3200 3200 3200 3199 3199 3199 3199 3198
3173 3175 3177 3178 3179 3180 3182 3184 3184 3185 3186 3187 3188 3189 3190 3192 3193 3194 3194 3195 3195 3196 3197 3198 3198 3198 3198 3199 3199 3199 3198 3198 3197 3198 3198 3197 3197 3196 3196 3196 3196 3195
3170 3171 3173 3174 3176 3177 3179 3180 3181 3182 3183 3184 3185 3186 3187 3188 3189 3190 3191 3192 3193 3193 3194 3195 3196 3196 3196 3196 3196 3196 3196 3195 3195 3195 3195 3194 3194 3193 3193 3193 3193 3192
3166 3167 3169 3170 3172 3174 3176 3177 3177 3178 3179 3180 3182 3184 3185 3185 3187 3187 3188 3189 3190 3190 3191 3192 3193 3193 3193 3193 3193 3193 3193 3192 3192 3192 3192 3191 3191 3191 3190 3191 3191 3190
3162 3164 3165 3166 3168 3171 3172 3173 3173 3173 3175 3178 3180 3181 3182 3183 3184 3185 3185 3186 3187 3187 3189 3190 3191 3191 3191 3190 3190 3190 3190 3190 3190 3190 3189 3189 3188 3188 3188 3188 3189 3188
3159 3160 3161 3162 3165 3167 3168 3169 3169 3169 3173 3176 3177 3178 3179 3180 3182 3182 3181 3182 3184 3185 3186 3187 3188 3188 3188 3188 3188 3188 3187 3187 3187 3187 3187 3186 3186 3186 3186 3186 3186 3186
3155 3156 3158 3159 3161 3162 3163 3164 3165 3168 3171 3173 3174 3175 3177 3178 3180 3180 3178 3179 3181 3183 3184 3185 3185 3185 3186 3185 3185 3185 3185 3185 3184 3184 3184 3184 3184 3184 3184 3184 3184 3184
3153 3154 3155 3157 3158 3159 3160 3161 3163 3166 3168 3169 3171 3173 3175 3176 3177 3177 3177 3178 3179 3180 3181 3182 3183 3183 3183 3183 3183 3183 3182 3182 3182 3182 3182 3182 3182 3182 3183 3182 3182 3181
3151 3152 3154 3155 3156 3157 3159 3161 3162 3164 3165 3166 3168 3170 3172 3173 3174 3174 3175 3176 3177 3178 3178 3179 3180 3180 3180 3180 3180 3180 3180 3180 3180 3180 3181 3181 3181 3181 3181 3181 3181 3180